Regional Weather Roundup
Issued by NWS

Home | Current Version | Previous Version | Graphics & Text | Print | Product List | Glossary On
Versions: 1 2 3 4 5 6 7 8 9 10 11 12 13 14 15 16 17 18 19 20 21 22 23 24 25 26 27 28 29 30 31 32 33 34 35 36 37 38 39 40 41 42 43 44 45 46 47 48 49
000
ASUS45 KCYS 261510
RWRWY

WYOMING REGIONAL WEATHER ROUNDUP
NATIONAL WEATHER SERVICE CHEYENNE WY
800 AM MST MON JAN 26 2015

NOTE:  "FAIR" INDICATES FEW OR NO CLOUDS BELOW 12,000 FEET
WITH NO SIGNIFICANT WEATHER AND/OR OBSTRUCTIONS TO VISIBILITY.

WYZ001-261600-
YELLOWSTONE NATIONAL PARK

CITY           SKY/WX    TMP DP  RH WIND       PRES   REMARKS
LK YELLOWSTONE   N/A      8   4  83 CALM      30.47R
W YELLOWSTONE  NOT AVBL

$$
WYZ002>013-054>058-071-098>099-261600-
NORTHERN WYOMING

CITY           SKY/WX    TMP DP  RH WIND       PRES   REMARKS
JACKSON        CLOUDY    25  25 100 CALM      30.48S FOG
CODY           FAIR      30  25  80 N6        30.21S WCI  24
GREYBULL       FAIR      13  12  96 N3        30.25R
WORLAND        FAIR      15  12  88 CALM      30.24R
SHERIDAN       FAIR      43  26  51 S6        30.11R
BUFFALO        FAIR      48  24  39 SW3       30.15R
GILLETTE       FAIR      44  28  53 W9        30.12R
HULETT           N/A    N/A N/A N/A MISG        N/A
NEWCASTLE      FAIR      34  28  80 W3        30.13R

$$
WYZ014>020-022>026-101>103-261600-
CENTRAL WYOMING

CITY           SKY/WX    TMP DP  RH WIND       PRES   REMARKS
BIG PINEY      FAIR      18  13  80 E8        30.42R WCI   8
PINEDALE       FAIR      14  14 100 CALM      30.43S
DUBOIS         FAIR      36  21  55 NW23      30.34S WCI  24
LANDER         FAIR      30  23  75 NW6       30.27S WCI  24
RIVERTON       FAIR      25  21  85 N5        30.30R WCI  19
CASPER         FAIR      43  26  51 SW18G24   30.25R
DOUGLAS        FAIR      38  27  64 VRB3      30.20S

$$
WYZ021-027>030-104>119-261600-
SOUTHERN WYOMING

CITY           SKY/WX    TMP DP  RH WIND       PRES   REMARKS
EVANSTON       FAIR      28  24  85 SE5       30.42S WCI  23
KEMMERER       FAIR      25  23  93 NW10      30.42F WCI  15
FORT BRIDGER   FAIR      36  26  65 W10       30.43F WCI  29
ROCK SPRINGS   FAIR      32  25  75 CALM      30.41R
DIXON          FAIR      24  20  83 E9        30.49R WCI  14
RAWLINS        FAIR      32  24  72 SW8       30.41R WCI  25
SARATOGA       FAIR      30  25  80 S3        30.43R
LARAMIE        FAIR      25  19  78 E8        30.34R WCI  16
CHEYENNE       FAIR      51  21  30 W16G24    30.24R
TORRINGTON     FAIR      37  28  70 NW7       30.17R WCI  32
PINE BLUFFS    FAIR      45  27  49 NW21      30.21S

$$



USA.gov is the U.S. government's official web portal to all federal, state and local government web resources and services.